User: anonymous   Login
Location: Aulnoy
(48.8410°N, 3.0967°E)
Time: 02:46:30
(UTC+00:00)
Language:

CSL-04 Debris - Orbit

View from above orbital plane
View from above orbital plane
View from above satellite
View from above satellite

Ground track
Ground track

The orbit data is extracted from the following two-line orbital elements,

1 25733U 99025D   24111.59712302  .00001520  00000-0  76997-3 0  9992
2 25733  98.7797 156.4813 0013321 280.6166  79.3509 14.17519328288378
Epoch (UTC): 20 April 2024 14:19:51
Eccentricity: 0.0013321
inclination: 98.7797°
perigee height: 824 km
apogee height: 843 km
right ascension of ascending node: 156.4813°
argument of perigee: 280.6166°
revolutions per day: 14.17519328
mean anomaly at epoch: 79.3509°
orbit number at epoch: 28837

The dashed part of the orbit path shows where the satellite is in the earth's shadow,  

DLR